EHI
0 0 0 0 0 0 0 0 0 0 0 0 0 0 0 0 0 0 0 0 0 0 0 0 0 0 0 0 0 0 0 0 0 0 0 0 0 0
0 0 0 0 0 0 0 0 0 0 0 0 0 0 0 0 0 0 0 0 0 0 0 0 0 0 0 0 0 0 0 0 0 0 0 0 0 0
0 0 0 0 0 0 0 0 0 0 0 0 0 0 0 0 0 0 0 0 0 0 0 0 0 0 0 0 0 0 0 0 0 0 0 0 0 0
0 0 0 0 0 0 0 0 0 0 0 0 0 0 0 0 0 0 0 0 0 0 0 0 0 0 0 0 0 0 0 0 0 0 0 0 0 0
0 0 0 0 0 0 0 0 0 0 0 0 0 0 0 0 0 0 0 0 0 0 0 0 0 0 0 0 0 0 0 0 0 0 0 0 0 0
0 0 0 0 0 0 0 0 0 0 0 0 0 0 0 0 0 0 0 0 0 0 0 0 0 0 0 0 0 0 0 0 0 0 0 0 0 0
0 0 0 0 0 0 0 0 0 0 0 0 0 0 0 0 0 0 0 0 0 0 0 0 0 0 0 0 0 0 0 0 0 0 0 0 0 0
0 0 0 0 0 0 0 0 0 0 0 0 0 0 0 0 0 0 0 0 0 0 0 0 0 0 0 0 0 0 0 0 0 0 0 0 0 0
0 0 0 0 0 0 0 0 0 0 0 0 0 0 0 0 0 0 0 0 0 0 0 0 0 0 0 0 0 0 0 0 0 0 0 0 0 0
0 0 0 0 0 0 0 0 0 0 0 0 0 0 0 0 0 0 0 0 0 0 0 0 0 0 0 0 0 0 0 0 0 0 0 0 0 0
0 0 0 0 0 0 0 0 0 0 0 0 0 0 0 0 0 0 0 0 0 0 0 0 0 0 0 0 0 0 0 0 0 0 0 0 0 0
0 0 0 0 0 0 0 0 0 0 0 0 0 0 0 0 0 0 0 0 0 0 0 0 0 0 0 0 0 0 0 0 0 0 0 0 0 0
0 0 0 0 0 0 0 0 0 0 0 0 0 0 0 0 0 0 0 0 0 0 0 0 0 0 0 0 0 0 0 0 0 0 0 0 0 0
0 0 0 0 0 0 0 0 0 0 0 0 0 0 0 0 0 0 0 0 0 0 0 0 0 0 0 0 0 0 0 0 0 0 0 0 0 0
0 0 0 0 0 0 0 0 0 0 0 0 0 0 0 0 0 0 0 0 0 0 0 0 0 0 0 0 0 0 0 0 0 0 0 0 0 0
0 0 0 0 0 0 0 0 0 0 0 0 0 0 0 0 0 0 0 0 0 0 0 0 0 0 0 0 0 0 0 0 0 0 0 0 0 0
0 0 0 0 0 0 0 0 0 0 0 0 0 0 0 0 0 0 0 0 0 0 0 0 0 0 0 0 0 0 0 0 0 0 0 0 0 0
0 0 0 0 0 0 0 0 0 0 0 0 0 0 0 0 0 0 0 0 0 0 0 0 0 0 0 0 0 0 0 0 0 0 0 0 0 0
0 0 0 0 0 0 0 0 0 0 0 0 0 0 0 0 0 0 0 0 0 0 0 0 0 0 0 0 0 0 0 0 0 0 0 0 0 0
0 0 0 0 0 0 0 0 0 0 0 0 0 0 0 0 0 0 0 0 0 0 0 0 0 0 0 0 0 0 0 0 0 0 0 0 0 0
0 0 0 0 0 0 0 0 0 0 0 0 0 0 0 0 0 0 0 0 0 0 0 0 0 0 0 0 0 0 0 0 0 0 0 0 0 0
0 0 0 0 0 0 0 0 0 0 0 0 0 0 0 0 0 0 0 0 0 0 0 0 0 0 0 0 0 0 0 0 0 0 0 0 0 0
0 0 0 0 0 0 0 0 0 0 0 0 0 0 0 0 0 0 0 0 0 0 0 0 0 0 0 0 0 0 0 0 0 0 0 0 0 0
Wind_Speed
1 1 1 1 1 1 1 0 1 2 2 2 2 3 3 3 6 4 4 9 10 10 10 10 9 7 6 5 4 3 5 7 8 9 10 10 9 7
1 2 2 1 2 2 2 1 1 1 1 2 2 2 3 3 6 4 5 9 11 11 11 11 11 10 10 9 7 6 6 6 6 7 7 7 7 7
2 2 3 3 2 2 2 2 2 1 1 2 2 2 3 3 3 3 3 4 4 10 10 11 10 10 9 9 9 8 6 4 3 4 4 5 5 6
3 3 3 3 4 3 3 3 2 2 1 2 2 2 2 2 2 3 2 3 3 7 8 9 9 9 9 8 7 6 6 4 3 1 1 3 4 5
4 4 4 4 4 3 3 3 2 2 2 3 2 1 1 1 1 2 2 2 2 4 6 7 8 8 7 7 6 5 5 4 3 2 2 2 3 4
5 5 5 4 4 3 3 3 2 2 3 3 2 1 1 1 1 2 2 2 2 3 4 4 5 6 6 5 6 6 5 4 3 3 2 2 3 4
5 5 5 7 8 5 4 4 4 3 2 2 2 1 1 2 2 1 1 2 2 2 3 3 2 2 2 3 4 4 4 4 4 4 4 4 5 6
4 3 4 5 7 8 9 8 7 4 2 2 1 1 1 1 2 2 2 2 2 3 3 3 1 1 1 1 2 3 4 4 4 4 5 5 6 7
3 2 2 3 4 3 5 7 7 8 6 2 2 2 2 1 2 2 2 1 1 2 2 3 2 2 1 0 1 2 3 4 4 5 6 6 7 7
2 2 2 2 3 3 3 3 3 3 4 4 3 3 3 2 2 1 0 1 2 2 1 1 2 2 2 2 1 1 2 3 4 5 6 6 7 8
2 2 2 2 3 3 2 1 1 1 3 4 3 2 2 2 2 2 2 2 2 2 2 1 2 3 3 2 1 1 2 4 5 5 7 7 8 8
2 2 2 2 3 1 1 1 1 1 1 1 0 1 1 0 1 2 2 2 0 1 2 2 2 3 4 3 2 2 3 5 7 7 8 9 9 4
2 2 2 4 3 2 1 1 1 1 0 1 1 1 1 1 1 2 2 3 2 2 1 2 1 1 1 3 3 2 2 2 3 4 7 10 11 7
2 2 3 6 4 3 2 3 2 1 0 1 1 1 1 1 1 1 1 1 2 3 2 1 1 1 1 2 4 3 3 3 3 3 3 7 9 11
3 4 5 6 5 3 5 5 3 1 1 2 2 2 2 2 2 1 1 2 3 4 4 4 4 3 3 3 4 4 4 4 3 3 3 3 3 4
4 5 7 7 5 5 5 4 3 3 3 3 2 2 1 2 2 2 2 2 2 3 4 5 5 5 4 6 6 7 5 5 3 3 4 5 5 4
4 3 3 3 3 3 3 4 3 3 3 2 2 2 2 2 2 2 2 2 2 3 3 2 4 5 6 5 6 8 7 7 7 6 5 7 6 5
7 4 4 5 5 5 5 4 4 4 4 4 3 3 3 3 3 2 2 3 4 4 4 3 2 2 3 6 11 10 8 7 6 5 5 7 8 5
7 5 5 5 5 5 5 4 4 4 4 4 4 4 4 3 3 3 3 4 4 5 4 3 3 3 5 7 6 9 7 5 4 5 5 6 9 7
6 6 6 6 5 5 5 5 5 4 4 4 4 4 4 4 4 4 4 5 5 5 5 4 4 5 7 6 5 5 7 6 6 7 7 7 8 12
7 7 7 6 6 6 6 5 5 5 5 5 5 5 5 5 5 5 5 9 7 5 7 6 6 9 5 4 7 7 5 10 12 8 6 7 9 9
8 7 7 7 6 6 6 6 5 5 6 6 5 5 5 5 6 7 6 6 6 6 7 6 4 4 4 7 10 11 10 7 11 18 20 17 8 6
8 7 6 6 6 6 6 6 7 6 6 6 6 6 6 6 6 6 6 6 6 7 7 6 5 5 7 8 9 10 12 11 9 9 10 15 22 26
Wind_Direction
353 349 5 8 1 354 349 344 212 228 226 136 95 40 35 56 35 40 37 34 34 33 30 27 24 23 26 35 61 97 123 139 151 162 169 180 187 194
27 32 41 17 18 12 6 4 20 199 195 94 90 59 40 48 46 40 36 40 40 41 40 37 36 38 43 52 63 80 98 114 138 157 169 184 193 200
56 65 57 39 40 24 20 27 33 38 150 111 92 65 56 46 37 31 36 36 34 41 39 40 39 38 44 52 55 62 71 90 136 170 192 207 213 219
65 70 64 57 49 31 35 42 40 32 87 128 99 73 61 46 42 36 32 44 38 38 38 40 41 40 41 45 51 56 60 63 67 58 256 251 245 246
59 63 60 66 58 44 46 45 39 41 55 99 101 89 67 31 41 38 34 36 31 33 33 33 34 34 37 38 41 48 48 42 35 27 4 322 294 277
61 57 55 60 58 53 51 34 39 57 68 89 100 96 83 3 49 37 19 8 9 21 19 13 21 29 29 35 39 37 31 20 9 354 329 309 303 292
81 73 69 70 66 63 62 42 41 55 68 82 93 83 69 47 41 20 12 339 2 25 10 344 348 5 7 22 34 25 11 355 340 328 315 301 290 283
103 94 88 70 71 69 68 62 59 67 70 70 90 105 89 68 51 31 27 25 339 350 14 325 336 353 333 94 27 6 347 333 322 312 303 295 290 285
106 99 98 90 74 62 69 69 60 58 59 78 85 88 89 65 74 41 33 26 268 283 15 321 331 340 307 7 34 353 331 325 317 308 299 292 287 285
104 106 112 111 91 74 73 70 70 59 54 60 76 71 77 67 71 94 197 333 299 299 92 326 322 327 324 320 266 248 306 309 309 309 302 293 288 284
139 115 103 125 121 97 86 81 87 120 99 92 89 85 62 46 44 52 40 40 347 333 28 43 326 328 324 318 271 235 281 293 298 300 298 295 289 288
175 176 168 151 153 127 95 114 113 138 112 110 334 263 228 209 66 102 124 120 83 309 351 39 3 4 336 316 327 321 308 295 297 301 300 297 293 289
185 194 195 186 191 216 222 175 184 148 123 236 250 245 217 183 146 115 118 143 170 237 331 60 18 356 302 303 309 309 309 304 313 305 303 301 296 287
199 199 193 190 205 231 239 233 233 206 259 267 258 249 213 180 157 136 131 156 195 222 249 147 204 217 285 295 287 301 310 299 295 289 287 297 296 293
203 202 197 206 223 239 246 243 236 207 226 241 246 241 207 180 161 176 254 248 251 249 239 212 205 218 215 244 275 290 307 292 277 277 281 273 268 274
218 220 224 230 228 234 247 247 216 209 211 220 236 231 189 176 199 210 226 244 274 277 248 215 200 202 231 247 260 271 266 274 287 282 281 275 265 256
188 184 191 204 216 221 223 222 214 217 227 218 226 229 224 217 223 214 209 213 238 267 282 254 220 212 223 236 258 260 264 264 263 268 271 275 266 253
205 196 207 212 216 218 218 216 211 211 211 210 215 219 224 228 235 228 216 220 244 257 262 260 242 253 257 250 234 251 257 261 263 260 258 272 279 262
216 209 215 218 217 215 212 211 214 212 205 204 210 214 217 223 229 235 235 238 247 253 254 245 230 231 264 278 271 231 233 255 267 268 260 261 274 277
214 216 219 218 216 213 211 212 214 211 206 208 209 213 213 219 229 235 234 236 245 254 259 246 230 228 241 256 267 268 239 248 261 270 272 271 271 277
218 220 219 216 213 211 210 209 209 211 210 207 212 214 214 217 230 235 237 249 250 251 255 253 241 250 248 246 262 265 252 250 253 255 262 271 279 278
220 219 217 214 212 210 208 207 209 213 213 215 215 215 215 218 230 235 237 242 246 248 256 261 251 247 234 247 260 273 280 273 265 268 264 255 255 258
222 219 216 212 211 209 207 208 211 216 216 216 217 216 215 221 227 232 237 241 245 251 258 265 260 249 250 253 262 269 276 281 281 277 267 261 259 259